FW4377 Weather Reports


time (UTC)temp
C
wind
direction
speed
KPH
gust
KPH
rain 1hr
cm
rain 24hr
cm
rain mn
cm
humidity
%
barometer
mb
20260505064552 12 228 9.7 17.7 0.00 0.00 0.00 69 1009.8
20260505063048 12 252 9.7 16.1 0.00 0.00 0.00 68 1009.9
20260505061552 13 233 8.0 16.1 0.00 0.00 0.00 67 1009.8
20260505060055 13 193 9.7 22.5 0.00 0.00 0.00 66 1009.9
20260505054552 13 226 8.0 16.1 0.00 0.00 0.00 65 1009.9
20260505053051 13 260 9.7 19.3 0.00 0.00 0.00 65 1009.8
20260505051606 13 241 6.4 20.9 0.00 0.00 0.00 64 1009.9
20260505041545 13 257 14.5 22.5 0.00 0.00 0.00 61 1010.1
20260505040052 14 246 12.9 22.5 0.00 0.00 0.00 60 1009.9
20260505034546 14 257 12.9 24.1 0.00 0.00 0.00 59 1010.0
20260505033048 14 242 12.9 30.6 0.00 0.00 0.00 57 1009.9
20260505031553 15 232 11.3 27.4 0.00 0.00 0.00 56 1010.0
20260505030048 15 245 16.1 27.4 0.00 0.00 0.00 55 1009.9
20260505024557 15 229 9.7 27.4 0.00 0.00 0.00 54 1009.9
20260505023053 15 240 16.1 30.6 0.00 0.00 0.00 53 1009.9
20260505021547 15 216 14.5 22.5 0.00 0.00 0.00 53 1009.9
20260505020048 15 205 6.4 22.5 0.00 0.00 0.00 53 1009.9
20260505014548 16 231 17.7 25.7 0.00 0.00 0.00 51 1009.8
20260505013100 16 243 14.5 27.4 0.00 0.00 0.00 50 1009.6
20260505011543 16 255 17.7 29.0 0.00 0.00 0.00 50 1009.3
20260505004549 16 283 14.5 30.6 0.00 0.00 0.00 52 1008.7
20260505003046 16 224 16.1 29.0 0.00 0.00 0.00 52 1008.5
20260505001549 16 246 14.5 33.8 0.00 0.00 0.00 51 1008.1
20260505000058 17 241 11.3 24.1 0.00 0.00 0.00 51 1007.5
20260504234543 18 170 11.3 35.4 0.00 0.00 0.00 46 1007.3
20260504233043 18 263 12.9 33.8 0.00 0.00 0.00 44 1007.1
20260504231546 19 230 20.9 35.4 0.00 0.00 0.00 42 1006.8
20260504230056 20 260 19.3 40.2 0.00 0.00 0.00 38 1006.3
20260504224546 21 231 14.5 29.0 0.00 0.00 0.00 33 1006.0
20260504223055 21 251 12.9 29.0 0.00 0.00 0.00 32 1006.0
20260504221550 21 262 14.5 27.4 0.00 0.00 0.00 32 1006.0
20260504220053 21 226 20.9 35.4 0.00 0.00 0.00 32 1006.0
20260504214552 22 204 14.5 24.1 0.00 0.00 0.00 31 1006.0
20260504213057 21 290 20.9 30.6 0.00 0.00 0.00 31 1005.9
20260504211552 21 217 17.7 32.2 0.00 0.00 0.00 31 1005.9
20260504210047 21 300 12.9 38.6 0.00 0.00 0.00 32 1006.0
20260504204543 21 254 22.5 43.5 0.00 0.00 0.00 29 1006.1
20260504203042 21 258 19.3 40.2 0.00 0.00 0.00 30 1005.9
20260504201603 21 220 17.7 33.8 0.00 0.00 0.00 30 1006.2
20260504200047 21 271 9.7 27.4 0.00 0.00 0.00 30 1006.1
20260504194553 21 297 14.5 32.2 0.00 0.00 0.00 29 1006.1
20260504193050 21 326 14.5 46.7 0.00 0.00 0.00 31 1006.1
20260504191557 21 321 24.1 40.2 0.00 0.00 0.00 30 1006.2
20260504190110 21 210 14.5 32.2 0.00 0.00 0.00 30 1006.4
20260504184611 21 214 22.5 40.2 0.00 0.00 0.00 31 1006.6
20260504183048 20 290 16.1 43.5 0.00 0.00 0.00 31 1006.5
20260504181551 21 302 16.1 40.2 0.00 0.00 0.00 32 1006.6
20260504180052 20 239 24.1 48.3 0.00 0.00 0.00 31 1006.9
20260504174550 20 252 24.1 41.8 0.00 0.00 0.00 31 1006.8
20260504173046 20 200 22.5 43.5 0.00 0.00 0.00 32 1007.0
20260504171554 19 278 25.7 41.8 0.00 0.00 0.00 33 1006.9
20260504140105 16 306 12.9 30.6 0.00 0.15 0.00 41 1008.9
20260504081547 8 231 4.8 9.7 0.00 0.15 0.00 54 1009.9